EA1JL-13 Weather Reports


time (UTC)temp
C
wind
direction
speed
KPH
gust
KPH
rain 1hr
cm
rain 24hr
cm
rain mn
cm
humidity
%
barometer
mb
20221203051517 3 111 0.0 0.0 0.00 0.03 0.00 87 1010.5
20221203044518 4 59 0.0 0.0 0.00 0.03 0.00 89 1010.4
20221203041517 4 81 0.0 0.0 0.00 0.03 0.00 87 1010.2
20221203040017 4 69 0.0 0.0 0.00 0.03 0.00 88 1010.2
20221203034519 4 82 0.0 0.0 0.00 0.03 0.00 87 1010.2
20221203031518 5 54 0.0 0.0 0.00 0.03 0.00 87 1010.1
20221203030017 4 28 0.0 0.0 0.00 0.03 0.00 90 1010.2
20221203024517 5 76 0.0 0.0 0.00 0.03 0.00 88 1010.2
20221203023017 4 69 0.0 0.0 0.00 0.03 0.00 88 1010.2
20221203021517 5 91 0.0 0.0 0.00 0.03 0.00 86 1010.2
20221203020017 5 68 0.0 0.0 0.00 0.03 0.00 88 1010.0
20221203013017 4 106 0.0 0.0 0.00 0.03 0.00 90 1010.0
20221203010016 3 83 0.0 0.0 0.00 0.03 0.00 91 1010.3
20221203004517 4 72 0.0 0.0 0.00 0.03 0.00 90 1010.2
20221203003017 5 37 0.0 0.0 0.00 0.03 0.00 91 1010.2
20221203001517 4 69 0.0 0.0 0.00 0.03 0.00 91 1010.2
20221203000017 4 116 0.0 0.0 0.00 0.03 0.00 88 1010.3
20221202234517 5 46 0.0 0.0 0.03 0.03 0.03 89 1010.4
20221202233018 6 73 0.0 0.0 0.00 0.00 0.00 89 1010.5
20221202231517 5 39 1.6 9.7 0.00 0.00 0.00 94 1010.6
20221202224517 5 135 1.6 1.6 0.00 0.00 0.00 94 1010.6
20221202221517 5 23 0.0 3.2 0.00 0.00 0.00 94 1010.6
20221202220017 5 76 1.6 3.2 0.00 0.00 0.00 94 1010.6
20221202214516 4 144 0.0 3.2 0.00 0.00 0.00 93 1010.7
20221202213018 5 91 1.6 1.6 0.00 0.00 0.00 94 1010.6
20221202211517 5 141 0.0 0.0 0.00 0.00 0.00 94 1010.7
20221202210016 5 155 0.0 0.0 0.00 0.00 0.00 93 1010.7
20221202204516 5 155 0.0 0.0 0.00 0.00 0.00 93 1010.7
20221202203018 5 145 0.0 0.0 0.00 0.00 0.00 92 1010.6
20221202201516 6 145 0.0 0.0 0.00 0.00 0.00 93 1010.5
20221202194517 6 32 0.0 0.0 0.00 0.00 0.00 92 1010.4
20221202193017 6 36 0.0 0.0 0.00 0.00 0.00 92 1010.5
20221202191516 7 39 0.0 0.0 0.00 0.00 0.00 92 1010.5
20221202190017 7 39 0.0 0.0 0.00 0.00 0.00 91 1010.4
20221202184516 7 153 0.0 0.0 0.00 0.00 0.00 90 1010.5
20221202183017 7 107 0.0 45.1 0.00 0.00 0.00 89 1010.6
20221202181517 8 107 0.0 1.6 0.00 0.00 0.00 89 1010.6
20221202180016 8 150 0.0 0.0 0.00 0.00 0.00 87 1010.6
20221202174516 9 150 0.0 0.0 0.00 0.00 0.00 85 1010.7
20221202173017 10 150 1.6 1.6 0.00 0.00 0.00 81 1010.6
20221202171516 11 207 0.0 1.6 0.00 0.00 0.00 77 1010.6
20221202170017 13 159 0.0 1.6 0.00 0.00 0.00 70 1010.5
20221202164517 14 259 0.0 0.0 0.00 0.00 0.00 70 1010.6
20221202163016 14 280 1.6 4.8 0.00 0.00 0.00 72 1010.5
20221202161516 13 266 1.6 4.8 0.00 0.00 0.00 69 1010.4
20221202160017 15 281 1.6 8.0 0.00 0.00 0.00 68 1010.3
20221202153018 15 293 3.2 8.0 0.00 0.00 0.00 63 1010.3
20221202150016 15 256 6.4 9.7 0.00 0.00 0.00 66 1010.2
20221202144516 15 19 3.2 4.8 0.00 0.00 0.00 61 1010.2
20221202143017 15 309 1.6 4.8 0.00 0.00 0.00 63 1010.3
20221202141516 15 12 4.8 8.0 0.00 0.00 0.00 63 1010.4
20221202140016 15 327 3.2 4.8 0.00 0.00 0.00 64 1010.6
20221202134516 14 306 1.6 8.0 0.00 0.00 0.00 66 1010.8
20221202133016 14 325 1.6 3.2 0.00 0.00 0.00 66 1010.9
20221202131516 13 266 1.6 3.2 0.00 0.00 0.00 68 1011.1
20221202130018 13 246 1.6 3.2 0.00 0.00 0.00 70 1011.3
20221202124517 12 238 1.6 3.2 0.00 0.00 0.00 71 1011.5
20221202123017 12 234 3.2 3.2 0.00 0.00 0.00 71 1011.8
20221202121515 12 239 1.6 4.8 0.00 0.00 0.00 71 1012.1
20221202120016 12 243 1.6 3.2 0.00 0.00 0.00 71 1012.2
20221202114516 11 177 4.8 4.8 0.00 0.00 0.00 74 1012.5
20221202113016 10 224 4.8 4.8 0.00 0.00 0.00 76 1012.8
20221202111516 10 247 1.6 3.2 0.00 0.00 0.00 77 1013.0
20221202110016 9 157 1.6 3.2 0.00 0.00 0.00 79 1013.2
20221202104515 8 154 3.2 3.2 0.00 0.00 0.00 82 1013.4
20221202103017 8 199 1.6 3.2 0.00 0.00 0.00 85 1013.5
20221202101516 7 185 0.0 3.2 0.00 0.00 0.00 88 1013.5
20221202100016 7 193 1.6 3.2 0.00 0.00 0.00 90 1013.4
20221202094515 6 224 0.0 0.0 0.00 0.00 0.00 92 1013.5
20221202093016 5 239 0.0 1.6 0.00 0.00 0.00 93 1013.5
20221202091515 5 219 0.0 3.2 0.00 0.00 0.00 93 1013.4
20221202090017 4 215 0.0 0.0 0.00 0.00 0.00 94 1013.3
20221202084516 3 162 0.0 11.3 0.00 0.00 0.00 94 1013.3
20221202083016 3 148 0.0 1.6 0.00 0.00 0.00 94 1013.3
20221202081516 3 110 0.0 1.6 0.00 0.00 0.00 95 1013.3
20221202080017 2 110 0.0 0.0 0.00 0.00 0.00 94 1013.2
20221202074517 3 110 1.6 3.2 0.00 0.00 0.00 94 1013.2
20221202073015 3 78 1.6 1.6 0.00 0.00 0.00 94 1013.2
20221202071516 2 111 0.0 3.2 0.00 0.00 0.00 94 1013.3
20221202070016 3 1 0.0 1.6 0.00 0.03 0.00 94 1013.2
20221202064515 3 23 0.0 1.6 0.00 0.03 0.00 94 1013.2
20221202061516 3 269 0.0 1.6 0.00 0.03 0.00 94 1013.4
20221202054517 3 252 0.0 0.0 0.00 0.03 0.00 93 1013.5
20221202053015 3 251 0.0 1.6 0.00 0.03 0.00 93 1013.5